Wetbulb
67.60 68.55 68.46 69.22 69.58 69.87 69.63 68.55 67.08 65.75 66.01 65.80 65.00 65.49 65.03 64.82 64.73 65.18 66.24 63.83 66.37 68.40 69.20 68.90 68.64 68.61 68.72 68.81 69.09 68.67 67.70 66.80 65.76 64.95 63.86 63.04 62.67 62.24 61.71 61.61 60.75 60.27 60.16
64.63 67.04 67.63 68.12 68.25 69.04 68.62 69.43 67.72 66.03 65.02 64.49 64.92 65.19 64.52 64.55 64.32 64.41 64.95 64.83 64.87 66.47 68.66 68.67 69.12 69.08 69.23 69.06 69.05 68.40 67.26 66.45 65.66 64.79 63.70 62.59 62.23 61.75 61.11 60.76 60.30 59.99 60.52
63.63 64.42 65.24 66.91 67.20 68.26 68.31 68.19 67.90 67.52 65.80 63.79 63.62 63.87 63.57 64.04 64.00 63.68 64.71 65.44 64.32 64.41 66.65 68.24 68.52 68.55 68.97 69.28 69.17 68.25 67.14 66.25 65.43 64.25 63.13 62.21 61.64 61.06 60.90 60.19 59.91 59.28 58.79
63.17 62.88 63.44 64.51 66.72 67.35 67.08 66.76 66.47 65.27 64.20 63.47 62.56 62.65 63.01 63.46 63.41 63.50 64.08 64.74 65.01 65.48 65.35 66.67 67.68 68.31 68.34 68.85 68.84 68.24 67.05 65.70 64.60 63.97 62.89 61.78 61.32 60.78 60.38 59.76 59.24 58.82 58.58
62.47 62.01 62.33 63.10 64.14 64.74 65.38 64.13 64.66 64.18 62.81 63.24 61.82 61.58 62.58 62.65 62.85 62.75 63.06 63.50 64.08 65.21 65.79 64.44 64.71 65.42 66.56 67.55 67.83 67.76 66.72 65.08 64.12 63.12 62.41 61.70 61.11 60.58 59.90 59.55 59.02 58.65 58.61
61.61 61.58 61.49 62.08 62.75 63.59 63.69 63.18 62.91 63.37 62.54 62.76 61.86 60.66 61.62 60.96 62.03 61.87 62.25 62.45 63.17 64.26 65.18 65.17 64.54 64.00 64.20 66.09 66.73 66.53 65.62 64.65 63.32 62.65 61.88 61.41 60.63 60.39 59.84 59.05 58.54 58.86 58.19
60.26 60.45 60.61 60.70 60.98 61.35 62.31 62.90 62.78 60.98 61.25 61.93 60.08 56.88 56.85 56.83 61.16 62.12 61.21 62.09 62.57 63.70 64.29 64.49 64.06 62.78 62.95 64.29 65.28 65.58 64.98 64.13 62.87 62.28 61.32 60.75 60.43 60.09 59.52 59.10 58.53 57.85 57.48
59.79 59.28 59.03 59.22 59.65 59.94 60.46 60.51 61.37 60.72 60.13 60.82 57.97 56.10 53.44 54.55 57.54 59.85 60.29 60.52 61.69 63.32 62.95 63.00 61.88 60.76 61.17 61.71 62.61 64.06 64.45 64.03 63.16 62.22 61.22 60.80 60.06 59.76 59.21 58.64 58.11 57.73 57.84
59.37 59.07 58.43 58.76 59.15 59.54 58.82 58.85 59.51 60.34 58.25 58.71 59.10 55.76 50.04 51.04 53.95 55.95 58.24 58.91 59.72 61.30 62.12 61.34 60.30 60.18 60.48 61.10 61.41 61.26 62.03 62.87 62.73 62.36 61.64 60.79 60.05 59.45 59.05 58.94 58.45 58.15 58.48
57.44 57.79 57.68 56.76 58.15 58.93 58.55 58.97 60.18 60.53 59.30 56.62 57.84 57.66 54.94 54.23 52.88 47.57 52.32 55.87 57.60 58.26 59.66 60.15 58.63 58.68 59.07 59.58 59.22 58.76 59.61 61.15 62.85 62.35 62.05 61.32 60.08 59.67 59.24 58.77 58.79 59.45 58.66
57.72 56.45 56.00 55.87 55.80 57.11 58.36 58.67 58.87 59.52 59.49 58.20 57.65 55.99 53.77 53.60 53.20 49.85 48.67 50.02 54.60 55.81 57.81 57.95 57.50 57.99 58.55 58.46 58.93 58.13 58.83 60.93 62.05 62.41 62.19 61.81 60.56 59.66 59.25 58.92 59.69 60.03 58.18
56.48 55.96 55.45 55.44 55.00 55.23 55.89 57.69 58.53 58.94 58.96 59.16 58.40 57.82 56.45 53.67 52.71 52.15 50.88 50.07 51.28 52.81 55.27 56.67 56.82 56.93 57.68 57.74 57.35 56.39 57.47 59.63 61.65 61.92 62.11 61.68 60.39 59.66 59.30 59.32 59.88 58.43 56.77
54.96 55.60 55.01 54.21 54.93 55.19 55.09 55.62 56.90 57.69 58.19 58.07 58.17 57.61 57.66 56.67 56.03 53.81 51.90 50.10 50.34 51.97 52.98 54.68 55.67 56.25 57.06 57.65 57.28 54.98 55.78 58.29 60.15 61.28 61.84 61.41 60.53 59.95 59.43 59.17 59.91 57.77 55.99
54.87 56.04 55.94 55.33 55.34 55.78 56.00 55.59 55.74 56.63 57.34 57.92 57.87 58.00 56.92 56.80 56.30 54.97 52.91 51.14 49.56 49.17 50.57 51.58 53.54 55.30 56.51 57.23 56.71 52.99 55.28 56.10 58.12 60.20 60.53 60.49 60.27 59.64 59.64 59.52 59.53 57.50 55.64
55.97 55.46 55.20 54.99 54.87 55.47 55.71 55.65 55.18 55.65 56.52 56.90 57.57 57.71 57.31 56.70 57.02 56.08 55.64 53.81 51.37 47.91 48.63 51.38 50.84 53.48 55.05 55.23 54.48 53.76 55.23 53.60 56.13 57.67 58.29 57.65 56.43 57.44 57.89 58.05 58.35 57.22 55.18
55.00 54.55 54.01 53.07 53.42 54.51 54.55 55.10 54.97 55.44 55.57 56.06 56.64 56.69 57.02 56.27 56.19 56.11 56.07 55.46 54.29 52.19 49.02 52.13 52.19 51.81 53.57 53.48 52.88 53.64 54.43 51.70 53.91 55.61 55.82 54.73 54.44 55.01 56.22 56.39 55.71 54.63 53.18
53.88 53.38 51.72 51.26 51.94 52.30 52.77 53.07 53.68 54.25 54.20 54.77 55.51 55.78 55.67 56.15 54.27 54.65 54.72 54.63 53.17 52.58 49.90 51.29 52.27 51.42 51.93 51.55 51.33 52.66 52.54 51.77 52.26 53.61 54.44 54.27 54.01 54.40 54.59 53.85 53.01 52.30 51.33
52.75 50.96 50.24 50.59 50.69 50.92 51.17 50.69 51.27 53.18 53.39 53.46 54.21 54.65 54.40 54.41 53.88 53.91 54.09 53.85 53.47 53.14 49.95 47.05 48.00 46.69 50.68 50.89 50.23 50.01 50.32 50.72 50.78 51.81 53.47 53.57 53.57 53.08 52.30 51.52 50.94 50.57 49.91
50.84 49.96 49.60 49.06 48.78 48.78 49.60 50.42 50.54 51.16 52.87 53.45 53.97 53.08 53.48 53.86 52.43 52.26 51.66 52.78 52.42 50.62 49.64 46.41 45.44 46.93 48.43 50.07 48.74 48.82 49.14 49.01 50.09 50.35 53.20 53.11 52.88 51.92 51.15 50.50 49.94 49.38 48.56
49.83 49.35 49.02 48.53 48.43 48.37 48.33 48.40 50.17 50.51 51.42 53.09 53.39 53.82 53.55 53.11 52.20 52.08 51.12 51.06 49.36 48.82 46.96 45.57 45.07 45.21 46.30 48.35 48.47 47.20 45.97 47.34 46.82 50.62 50.40 50.41 50.67 50.44 50.21 49.74 48.96 47.54 46.43
49.29 48.88 48.34 48.33 48.45 48.47 47.80 47.73 47.97 50.05 51.20 51.88 52.53 52.87 53.18 51.65 49.34 51.17 50.18 49.22 47.52 47.72 46.50 45.03 44.01 44.69 44.02 44.97 44.77 45.74 44.50 45.03 44.96 44.64 43.92 45.62 46.23 46.46 46.92 48.31 46.26 45.51 45.49
48.13 48.04 47.27 47.17 46.98 47.61 47.20 47.25 47.54 50.21 50.95 50.53 49.92 50.71 51.65 47.45 47.98 49.39 49.29 48.71 48.79 47.35 46.03 45.15 44.44 43.71 43.49 44.75 45.71 44.79 43.79 41.67 38.87 43.03 41.64 39.62 42.46 41.71 41.64 42.30 44.23 43.95 43.91
47.62 47.25 46.71 47.09 46.94 47.21 47.21 47.52 48.17 49.41 49.11 48.98 48.55 47.30 46.47 47.74 47.84 48.40 47.75 47.54 47.54 47.90 47.94 46.38 44.78 45.43 44.71 45.43 45.46 44.34 42.86 41.92 40.17 40.38 39.94 37.07 37.78 38.20 40.05 41.19 42.47 42.49 42.32
47.25 46.48 45.98 46.15 46.39 46.87 46.92 46.64 46.55 46.41 46.10 46.04 46.57 46.71 46.19 46.31 46.98 46.75 46.28 45.76 46.13 46.66 47.43 47.57 47.81 46.28 46.36 46.46 45.53 44.20 41.96 36.46 36.48 36.88 38.36 35.14 35.07 35.65 37.75 38.37 40.76 41.08 40.97
43.22 43.53 45.57 45.88 45.83 46.62 46.47 46.40 46.35 45.71 45.14 45.14 45.88 46.30 46.19 45.79 46.40 46.75 44.75 42.96 42.52 42.57 44.50 44.51 44.60 44.66 44.76 44.08 42.46 40.46 36.84 36.63 33.05 33.38 34.94 34.55 34.18 34.60 35.52 35.57 36.64 38.05 38.45
41.29 42.02 42.43 43.73 45.53 46.02 46.42 46.35 46.05 45.41 44.37 44.60 45.55 45.73 45.92 46.17 45.83 45.60 43.96 42.84 40.56 41.05 41.81 41.27 41.04 41.31 41.17 41.47 42.06 40.80 39.30 35.46 33.28 32.48 34.51 34.09 33.29 33.24 31.12 32.44 33.22 35.02 34.99
MSLP
1013.85 1014.05 1014.23 1014.32 1014.51 1014.63 1015.00 1015.51 1015.85 1016.14 1016.50 1016.73 1016.45 1016.47 1016.57 1016.61 1016.86 1017.09 1017.70 1018.57 1019.06 1019.29 1019.36 1019.63 1019.88 1020.10 1020.40 1020.65 1020.92 1021.35 1021.84 1022.33 1022.83 1023.13 1023.45 1023.85 1024.13 1024.47 1024.66 1024.84 1025.07 1025.33 1025.48
1013.61 1014.07 1014.26 1014.36 1014.46 1014.59 1014.81 1015.17 1015.43 1015.72 1016.10 1016.21 1016.32 1016.08 1016.28 1016.49 1016.75 1017.05 1017.50 1018.48 1019.00 1019.28 1019.36 1019.55 1019.69 1019.93 1020.22 1020.55 1020.94 1021.40 1021.93 1022.43 1022.87 1023.34 1023.69 1023.99 1024.27 1024.58 1025.00 1025.20 1025.35 1025.51 1025.63
1013.53 1013.65 1014.07 1014.42 1014.51 1014.57 1014.62 1014.90 1015.21 1015.48 1015.99 1016.31 1016.22 1015.97 1016.15 1016.27 1016.54 1016.78 1017.28 1017.89 1018.88 1019.31 1019.37 1019.52 1019.69 1019.63 1020.02 1020.37 1020.91 1021.37 1021.89 1022.40 1022.84 1023.22 1023.76 1024.14 1024.54 1024.81 1025.08 1025.38 1025.62 1025.83 1026.03
1013.73 1013.83 1014.14 1014.27 1014.34 1014.48 1014.65 1014.73 1015.07 1015.55 1015.97 1016.33 1016.67 1016.10 1015.93 1016.12 1016.17 1016.48 1017.06 1017.82 1018.38 1018.83 1019.45 1019.53 1019.77 1019.75 1019.95 1020.44 1020.89 1021.41 1022.00 1022.50 1023.04 1023.18 1023.65 1024.41 1024.72 1025.06 1025.25 1025.46 1025.75 1026.03 1026.22
1013.56 1013.85 1014.02 1014.00 1013.90 1014.42 1014.68 1014.84 1015.06 1015.32 1015.95 1016.15 1016.63 1016.89 1016.25 1016.18 1016.43 1016.14 1016.58 1017.36 1018.06 1018.37 1019.01 1019.61 1019.90 1020.12 1020.15 1020.64 1021.08 1021.53 1022.13 1022.67 1023.16 1023.36 1023.68 1024.43 1024.93 1025.21 1025.49 1025.64 1025.81 1026.08 1026.39
1013.34 1013.61 1013.83 1014.11 1014.14 1014.22 1014.59 1014.69 1014.94 1014.85 1015.35 1015.66 1016.33 1016.75 1017.50 1016.28 1016.54 1016.53 1016.25 1017.18 1017.91 1018.14 1018.67 1019.29 1020.03 1020.33 1020.54 1020.66 1021.10 1021.73 1022.16 1022.67 1023.25 1023.43 1023.82 1024.45 1024.99 1025.18 1025.56 1025.80 1025.97 1026.12 1026.46
1013.28 1013.36 1013.52 1013.79 1014.07 1014.29 1014.15 1014.40 1014.77 1014.94 1014.92 1015.35 1015.98 1016.90 1017.37 1017.44 1017.35 1017.14 1016.49 1016.92 1017.76 1018.09 1018.44 1019.13 1019.80 1020.28 1020.60 1020.87 1021.18 1021.54 1022.16 1022.59 1023.15 1023.57 1024.01 1024.49 1024.93 1025.23 1025.48 1025.78 1026.04 1026.24 1026.43
1013.11 1013.33 1013.50 1013.59 1013.67 1013.84 1014.05 1014.11 1014.41 1014.77 1015.03 1015.17 1015.31 1016.76 1017.18 1017.93 1017.89 1016.84 1017.35 1017.35 1017.63 1018.01 1018.52 1019.06 1019.70 1020.17 1020.52 1020.85 1021.17 1021.54 1021.99 1022.37 1022.81 1023.32 1024.09 1024.65 1024.95 1025.23 1025.46 1025.78 1025.97 1026.17 1026.34
1012.87 1013.12 1013.32 1013.39 1013.43 1013.53 1013.51 1013.63 1013.99 1014.32 1014.55 1014.97 1014.89 1015.16 1016.85 1016.98 1017.35 1017.67 1017.59 1017.40 1017.36 1017.90 1018.68 1019.14 1019.46 1020.02 1020.36 1020.64 1021.16 1021.47 1021.89 1022.29 1022.56 1023.15 1023.84 1024.35 1024.77 1025.14 1025.35 1025.61 1025.87 1025.90 1026.21
1012.66 1012.90 1013.10 1013.36 1013.21 1013.13 1013.16 1013.24 1013.35 1013.67 1014.14 1014.32 1014.97 1014.72 1015.17 1015.44 1016.56 1017.82 1017.98 1017.68 1017.54 1017.71 1018.28 1019.04 1019.47 1020.04 1020.29 1020.68 1020.90 1021.19 1021.82 1022.17 1022.47 1023.01 1023.41 1023.94 1024.39 1024.78 1025.10 1025.38 1025.62 1025.74 1026.10
1011.92 1012.40 1012.75 1012.95 1013.11 1013.00 1012.75 1012.77 1012.83 1012.89 1013.30 1013.68 1013.84 1014.41 1015.23 1015.13 1015.26 1016.51 1016.84 1017.66 1018.02 1018.35 1017.72 1018.38 1019.16 1019.73 1020.01 1020.50 1020.86 1021.00 1021.57 1022.16 1022.43 1022.71 1023.13 1023.61 1023.96 1024.40 1024.76 1025.08 1025.23 1025.62 1026.01
1011.71 1012.04 1012.21 1012.44 1012.62 1012.84 1012.74 1012.43 1012.34 1012.27 1012.40 1012.74 1013.00 1013.37 1013.76 1014.22 1014.62 1015.24 1015.77 1017.06 1017.46 1018.10 1017.79 1018.07 1018.68 1019.12 1019.53 1020.13 1020.66 1021.03 1021.25 1022.03 1022.27 1022.51 1022.77 1023.20 1023.61 1024.00 1024.41 1024.66 1025.11 1025.60 1025.95
1011.34 1011.47 1011.60 1011.88 1011.91 1012.10 1012.20 1012.31 1012.06 1011.75 1011.74 1011.91 1012.20 1012.44 1013.03 1013.13 1013.48 1014.19 1014.89 1015.99 1016.55 1017.87 1018.07 1018.21 1018.45 1018.63 1019.04 1019.46 1020.00 1020.70 1020.99 1021.64 1022.06 1022.37 1022.50 1022.77 1023.21 1023.65 1023.97 1024.30 1024.73 1025.41 1025.84
1010.81 1010.97 1010.99 1011.12 1011.30 1011.27 1011.38 1011.51 1011.51 1011.30 1011.20 1011.17 1011.36 1011.66 1012.10 1012.54 1012.93 1013.38 1014.01 1014.74 1016.27 1017.08 1017.66 1017.59 1018.29 1018.36 1018.92 1018.98 1019.41 1019.93 1020.73 1021.20 1021.64 1022.14 1022.39 1022.49 1022.87 1023.29 1023.68 1024.08 1024.47 1025.07 1025.65
1010.17 1010.44 1010.61 1010.55 1010.67 1010.62 1010.54 1010.64 1010.56 1010.47 1010.47 1010.56 1010.66 1010.98 1011.17 1011.82 1012.10 1012.63 1012.96 1013.69 1013.83 1015.44 1016.32 1016.85 1017.28 1017.75 1018.48 1018.98 1019.13 1019.55 1020.16 1020.85 1021.30 1021.86 1022.31 1022.52 1022.81 1023.08 1023.44 1023.83 1024.29 1024.89 1025.38
1009.66 1009.86 1009.97 1010.11 1010.08 1009.94 1009.93 1009.85 1009.76 1009.73 1009.67 1009.74 1009.97 1010.32 1010.54 1010.98 1011.79 1011.98 1012.39 1012.75 1013.11 1013.69 1014.40 1015.01 1015.75 1016.54 1017.34 1018.13 1018.75 1019.17 1019.42 1020.11 1020.86 1021.44 1022.04 1022.41 1022.74 1023.02 1023.29 1023.64 1024.16 1024.70 1025.20
1009.15 1009.23 1009.55 1009.51 1009.43 1009.49 1009.50 1009.36 1009.13 1009.05 1009.00 1009.15 1009.29 1009.55 1009.91 1010.46 1011.18 1011.21 1011.99 1012.43 1012.55 1012.60 1013.42 1014.43 1014.98 1016.05 1016.48 1017.10 1018.03 1018.66 1018.96 1019.62 1020.21 1020.84 1021.52 1022.05 1022.54 1022.85 1023.18 1023.58 1024.05 1024.57 1025.04
1008.54 1008.81 1009.02 1009.05 1009.13 1009.16 1009.05 1008.93 1008.66 1008.29 1008.28 1008.39 1008.64 1008.97 1009.18 1009.88 1010.21 1010.93 1011.30 1011.75 1012.33 1012.45 1013.11 1014.30 1015.24 1015.99 1016.01 1016.46 1016.87 1017.82 1018.31 1019.02 1019.45 1020.22 1021.11 1021.62 1022.25 1022.62 1023.02 1023.49 1023.90 1024.46 1024.90
1008.04 1008.33 1008.56 1008.79 1008.84 1008.88 1008.63 1008.26 1008.04 1007.84 1007.44 1007.57 1007.90 1008.27 1008.64 1008.94 1009.48 1010.20 1010.59 1011.51 1011.72 1012.03 1012.85 1013.88 1015.07 1015.56 1016.28 1016.34 1016.70 1017.87 1018.06 1018.73 1019.17 1019.82 1020.70 1021.23 1021.77 1022.41 1022.95 1023.46 1023.96 1024.35 1024.93
1007.53 1007.73 1008.01 1008.30 1008.32 1008.32 1008.16 1007.75 1007.31 1007.05 1007.00 1006.74 1007.10 1007.46 1007.92 1008.45 1008.79 1009.44 1010.43 1010.87 1011.74 1012.15 1012.61 1014.01 1014.56 1015.37 1015.94 1016.25 1016.63 1017.76 1018.53 1019.02 1019.67 1020.09 1020.71 1021.15 1021.81 1022.42 1023.05 1023.66 1023.93 1024.48 1024.70
1007.17 1007.40 1007.73 1007.89 1007.96 1007.78 1007.45 1007.03 1006.61 1006.16 1005.97 1006.18 1006.50 1006.91 1007.28 1007.72 1008.31 1009.10 1009.92 1010.52 1011.22 1012.08 1012.31 1013.62 1014.49 1015.48 1016.22 1016.15 1016.71 1017.80 1018.54 1018.97 1020.19 1020.48 1021.12 1021.51 1021.81 1022.46 1023.22 1023.68 1024.20 1024.52 1024.81
1006.99 1007.25 1007.58 1007.65 1007.43 1007.27 1006.64 1006.00 1005.61 1005.11 1005.06 1005.48 1006.15 1006.53 1007.05 1007.47 1008.13 1008.78 1009.38 1009.87 1010.50 1010.79 1012.04 1013.29 1013.47 1014.72 1015.46 1015.77 1016.69 1017.47 1018.16 1019.27 1020.77 1020.80 1021.14 1022.30 1022.28 1022.69 1023.30 1023.77 1023.92 1024.62 1024.81
1007.06 1007.40 1007.47 1007.43 1007.26 1006.92 1006.29 1005.26 1004.78 1004.46 1004.79 1005.33 1005.98 1006.43 1007.23 1007.43 1007.97 1008.76 1009.44 1010.38 1010.51 1011.04 1011.69 1011.74 1013.65 1014.23 1014.75 1015.31 1016.29 1017.13 1017.94 1018.98 1019.95 1020.58 1021.26 1022.54 1022.97 1023.20 1023.44 1023.98 1024.25 1024.34 1024.66
1007.23 1007.33 1007.46 1007.45 1007.28 1006.86 1006.26 1005.58 1005.11 1004.94 1005.19 1005.59 1006.04 1006.40 1007.09 1007.78 1008.21 1008.62 1009.55 1010.64 1010.94 1011.30 1011.92 1013.07 1013.72 1014.21 1014.44 1015.14 1016.06 1016.74 1017.68 1019.55 1020.41 1021.33 1021.57 1022.49 1023.25 1023.50 1023.76 1023.95 1024.08 1024.33 1024.63
1007.46 1007.45 1007.38 1007.54 1007.36 1007.19 1006.86 1006.38 1005.80 1005.63 1005.95 1006.34 1006.69 1006.92 1007.41 1007.91 1008.51 1008.76 1009.65 1011.02 1011.68 1012.75 1013.44 1013.47 1013.93 1014.58 1015.08 1015.74 1016.09 1017.05 1018.45 1019.32 1021.00 1021.69 1021.94 1022.21 1023.16 1023.43 1023.81 1024.00 1024.29 1024.40 1024.66
1008.00 1007.89 1007.90 1007.92 1007.75 1007.57 1007.42 1007.24 1006.79 1006.44 1006.73 1007.07 1007.41 1007.83 1008.08 1008.39 1009.09 1009.33 1009.92 1010.97 1011.98 1013.36 1014.00 1014.70 1015.31 1015.83 1016.23 1016.67 1016.87 1017.23 1018.22 1019.27 1020.37 1021.61 1021.91 1022.20 1023.08 1023.38 1024.18 1024.27 1024.34 1024.42 1024.92
Wind_Speed
4 5 4 5 5 7 7 8 9 9 11 11 9 11 12 10 9 4 5 11 9 7 11 13 16 14 13 10 17 20 21 21 19 18 17 15 13 13 12 13 11 11 11
6 5 5 5 4 5 5 8 10 10 9 10 11 11 12 9 9 8 4 7 8 7 10 13 15 14 15 15 19 22 21 20 19 18 16 14 13 13 11 11 12 10 11
5 6 5 5 4 4 8 8 10 9 7 6 8 8 8 11 9 9 5 4 7 6 10 11 12 13 14 18 22 23 22 20 20 19 16 13 12 12 11 10 11 10 8
5 6 5 6 5 5 5 5 6 5 6 7 7 9 9 9 11 10 7 6 6 7 7 10 11 12 13 17 21 21 21 20 17 18 16 12 12 11 11 11 10 10 9
5 5 5 6 8 3 5 5 6 7 7 7 5 5 7 8 9 8 10 9 8 6 7 7 8 9 13 14 16 18 19 18 16 16 17 14 12 12 11 11 10 9 9
7 6 5 6 4 4 6 2 6 8 7 9 8 5 4 4 5 5 7 6 6 6 8 9 5 6 9 14 16 16 17 17 15 16 16 14 13 12 11 10 9 10 7
7 7 6 6 5 6 7 8 5 5 6 8 7 2 1 3 4 4 3 6 6 6 8 7 6 5 5 10 13 16 16 16 15 14 15 14 13 12 11 10 8 7 6
8 7 8 7 8 7 8 8 6 4 3 7 5 4 5 1 4 4 2 5 8 5 5 10 9 6 5 5 7 12 15 16 16 16 14 14 13 12 11 10 9 7 7
8 8 9 9 8 7 7 8 8 10 6 5 8 5 4 4 3 2 6 5 7 6 7 4 8 8 7 6 9 9 12 15 16 16 17 15 14 13 12 11 10 8 7
8 8 9 10 10 7 9 9 8 9 9 8 4 3 3 5 5 4 1 2 5 7 7 6 8 7 7 4 8 11 11 11 17 18 18 17 15 13 12 11 11 10 9
8 9 9 11 10 9 10 11 11 11 10 9 9 5 2 1 3 3 5 3 4 4 5 8 7 7 8 5 4 8 13 13 18 18 18 18 16 14 13 13 13 11 9
6 7 9 9 9 10 11 10 12 14 12 12 10 11 11 7 6 4 4 7 8 6 6 8 8 8 7 8 8 10 14 14 16 18 18 18 16 16 14 14 13 10 8
7 9 10 9 9 11 11 12 13 13 13 12 15 12 10 11 7 7 3 6 6 2 2 2 3 4 7 7 8 11 14 14 15 17 18 17 17 16 15 13 15 12 9
8 11 10 10 12 12 12 12 12 12 13 12 17 15 10 10 9 9 8 10 6 3 3 5 5 6 6 7 9 14 8 13 12 14 17 15 14 12 13 13 13 13 10
8 10 11 11 11 13 13 14 11 13 13 13 13 16 13 9 11 10 10 11 10 9 10 9 6 11 8 6 8 9 9 11 12 12 12 8 4 11 12 11 12 11 10
10 10 11 10 11 12 13 14 12 13 13 11 10 14 13 10 12 10 11 11 11 10 10 8 8 8 12 9 10 11 11 14 14 13 11 9 6 7 10 12 13 11 10
9 10 9 8 10 11 11 12 13 14 15 13 13 14 16 14 8 11 10 9 10 10 10 6 7 6 14 13 11 10 9 9 9 14 13 11 9 9 11 13 13 12 11
7 7 6 6 8 10 13 13 14 14 15 15 14 13 16 10 16 14 11 14 9 8 5 9 4 2 11 14 12 14 10 8 8 14 14 13 13 13 13 13 12 11 10
8 7 5 5 6 7 9 12 13 14 14 14 14 10 13 14 15 10 11 11 10 6 6 6 5 3 3 8 9 8 8 7 4 12 14 15 15 14 13 13 12 11 10
7 7 5 5 5 6 8 10 12 15 15 13 13 14 14 13 14 14 12 12 8 8 7 7 5 6 5 6 7 8 6 4 4 5 6 8 11 12 12 12 11 10 9
6 5 4 3 4 6 7 10 12 15 15 12 11 11 12 13 16 15 11 12 13 10 9 9 7 7 5 7 10 6 6 7 4 2 4 4 5 5 5 8 7 8 8
4 4 4 4 4 5 12 17 15 12 12 12 10 9 10 13 13 19 16 17 16 13 10 7 7 9 10 10 9 9 8 7 4 1 4 2 2 4 3 3 8 6 7
4 5 3 3 4 5 15 12 9 5 8 9 9 8 6 5 11 10 12 14 15 14 8 7 8 8 10 12 11 10 8 5 3 3 4 3 1 3 2 3 6 5 7
2 3 3 2 3 4 14 7 8 6 7 6 7 10 10 11 11 14 14 11 10 10 7 5 7 7 8 10 8 7 9 7 6 4 1 4 1 2 2 2 5 6 7
4 2 2 1 2 3 11 12 8 9 10 9 7 8 10 12 16 21 15 13 13 11 15 21 19 18 17 15 12 9 5 7 3 2 0 4 2 3 2 3 4 4 4
5 4 7 6 5 2 6 10 8 7 10 8 9 10 16 15 19 19 14 13 13 8 11 11 10 14 14 14 14 7 6 6 4 2 2 4 2 3 2 1 2 3 3
Wind_Direction
268 239 241 243 213 218 201 190 197 202 201 219 236 203 213 210 216 195 146 160 191 237 189 185 185 185 192 183 172 149 139 135 132 127 126 127 126 124 122 115 110 105 103
228 231 258 253 254 228 214 197 197 198 202 207 222 216 219 215 214 217 188 166 186 225 193 197 192 191 198 182 163 149 142 141 137 134 131 132 133 129 125 123 114 112 101
259 245 237 256 245 245 233 207 205 206 189 219 225 215 214 215 213 216 178 174 183 211 190 196 173 160 187 178 162 153 149 147 145 139 132 132 140 135 136 130 124 110 110
233 248 243 248 268 242 233 213 192 180 192 196 216 217 204 211 210 211 177 185 177 188 196 192 181 154 155 170 163 157 152 145 149 141 135 148 148 148 140 139 131 129 113
225 233 247 253 243 223 243 198 195 188 198 192 191 279 233 204 219 198 188 177 188 186 174 180 179 162 151 157 165 157 151 146 149 145 135 153 159 156 156 148 140 138 125
233 226 236 249 301 249 230 232 207 191 199 194 193 176 240 294 241 217 168 173 209 196 168 167 164 160 154 157 155 157 149 150 156 147 144 157 171 170 162 161 156 150 146
242 249 247 222 233 262 250 225 218 201 206 185 181 121 88 357 299 241 171 168 198 200 165 164 163 161 168 168 164 161 164 160 162 153 154 171 173 174 170 169 168 164 164
228 237 243 244 246 228 233 242 218 193 195 192 151 144 171 180 232 236 220 184 182 185 195 169 173 158 161 166 167 171 182 176 167 159 173 176 179 180 177 179 181 188 207
236 232 246 248 244 242 246 229 227 210 195 192 204 142 155 200 136 305 197 166 174 168 181 178 174 169 168 163 162 161 169 174 169 173 180 183 185 186 190 197 197 204 186
232 247 235 250 253 243 239 242 228 220 214 196 217 219 100 133 177 179 297 211 172 177 172 174 171 174 165 161 167 154 173 173 178 187 186 184 189 198 199 202 208 198 168
231 234 237 245 246 259 245 238 236 227 215 218 204 170 190 161 130 158 158 166 171 202 176 181 181 180 166 158 170 165 166 183 193 195 188 193 193 197 203 207 222 172 166
246 227 239 232 226 240 255 253 241 236 226 220 210 213 210 188 184 182 139 174 176 196 178 172 183 181 176 171 176 170 166 186 196 199 198 197 201 198 205 212 178 183 183
256 261 249 237 228 222 230 240 255 244 238 224 216 210 209 213 196 186 136 173 159 147 157 182 180 172 186 179 169 157 172 187 195 205 209 200 201 203 208 215 188 186 191
249 251 255 237 234 238 234 232 240 245 242 235 222 215 197 208 201 187 174 161 152 157 170 154 179 188 204 181 173 162 175 188 190 204 215 221 201 195 197 212 196 185 191
247 252 245 248 249 247 240 229 234 238 236 237 231 223 212 200 206 189 186 188 171 177 205 192 164 185 192 183 162 169 180 187 192 199 213 224 194 199 199 194 178 177 183
245 239 244 246 256 254 249 244 240 242 242 233 228 225 222 211 205 207 209 201 210 201 199 187 192 170 178 182 176 172 187 172 186 196 202 199 190 195 188 164 152 157 169
240 237 240 254 261 260 258 253 244 240 240 242 231 224 220 204 205 197 193 208 200 196 202 184 173 172 180 176 171 187 178 173 184 194 196 192 194 177 163 152 151 159 173
231 219 230 256 266 269 254 249 252 239 236 234 231 221 219 203 210 192 201 197 202 200 158 153 131 162 184 183 170 177 171 178 177 187 188 181 179 167 156 157 159 161 169
218 205 200 236 247 265 266 252 244 246 239 222 220 213 222 212 196 193 187 205 193 178 161 148 148 145 165 180 150 181 162 159 162 163 178 174 171 164 164 161 160 160 166
211 193 203 228 243 259 264 257 249 238 237 226 221 222 211 210 197 196 197 190 176 176 123 147 124 144 149 175 147 161 151 130 123 140 148 155 157 158 159 163 164 162 165
190 170 188 223 270 263 270 285 254 239 221 213 205 213 211 203 196 191 182 182 172 173 143 148 143 149 151 160 167 161 151 133 121 97 105 124 130 141 157 151 158 165 167
155 172 220 252 275 281 307 293 254 235 201 190 190 192 200 180 185 184 188 176 179 163 151 163 141 173 174 171 164 166 147 135 154 208 117 97 81 122 119 118 138 161 195
171 206 235 302 293 304 327 287 229 179 168 176 168 150 143 150 150 150 129 141 122 110 119 98 154 175 163 167 157 154 146 143 116 128 105 127 111 138 118 142 179 192 215
210 190 219 337 323 340 356 27 89 100 98 107 146 150 145 149 145 137 121 114 91 84 90 148 161 144 144 141 139 140 133 101 75 59 39 127 118 136 141 167 198 214 216
52 341 142 233 34 21 23 19 75 90 91 88 100 121 127 124 133 126 115 108 95 84 75 81 82 82 85 100 115 116 121 129 105 131 338 110 158 117 127 148 153 189 208
59 51 59 32 29 350 45 44 42 70 83 82 81 89 104 111 111 109 108 109 100 109 106 91 84 78 75 71 68 70 128 124 117 101 214 92 109 116 125 121 139 122 111